COYOTE (LAKE MENDOCINO) (COY)

Elevation: 720' · RUSSIAN R basin · Operator: US Army Corps of Engineers


Station comments:

01/27/2014Hourly data does not seem correct. Flagged data 1/14/2014 9:00 to 1/16/2014 7:00.


Provisional data, subject to change.
Query executed Tuesday at 18:25:11   clock

Select a sensor type for a plot of data.
Note: Reservoir Flows are daily averages.

Earlier

Date RES ELE    STORAGE    RES CHG    TOC STO    OUTFLOW    INFLOW    PPT INC    TEMP MN    TEMP MX    EVP PAN   
 FEET   AF   AF   AF   CFS   CFS   INCHES   DEG F   DEG F   INCHES  
06/23/2014 723.73 46770 -191 86370 125 42 0.00 13 31 0.31
06/24/2014 723.62 46609 -161 86370 123 56 0.00 16 30 0.31
06/25/2014 723.50 46433 -176 86370 124 45 0.00 14 25 0.21
06/26/2014 723.39 46272 -161 86370 125 54 0.00 15 26 0.24
06/27/2014 723.25 46068 -204 86370 125 35 0.00 16 28 0.29
06/28/2014 723.14 45908 -160 86370 126 58 0.00 15 30 0.30
06/29/2014 723.00 45704 -204 86370 137 48 0.00 12 36 0.33
06/30/2014 722.86 45501 -203 86370 137 52 0.00 14 42 0.36
07/01/2014 722.72 45298 -203 86370 138 52 0.00 15 36 0.34
07/02/2014 722.59 45110 -188 86370 144 64 0.00 14 35 0.33
07/03/2014 722.43 44879 -231 86370 144 44 0.00 15 36 0.33
07/04/2014 722.27 44648 -231 86370 144 43 0.00 14 36 0.33
07/05/2014 722.11 44418 -230 86370 144 44 0.00 11 36 0.34
07/06/2014 721.95 44188 -230 86370 144 44 0.00 11 39 0.35
07/07/2014 721.80 43973 -215 86370 141 47 0.00 16 40 0.30
07/08/2014 721.68 43802 -171 86370 140 68 0.00 19 38 0.30
07/09/2014 721.58 43659 -143 86370 138 80 0.00 15 34 0.32
07/10/2014 721.42 43431 -228 86370 138 38 0.00 13 32 0.31
07/11/2014 721.27 43218 -213 86370 144 50 0.00 14 30 0.30
07/12/2014 721.11 42990 -228 86370 148 47 0.00 11 35 0.30
07/13/2014 720.95 42764 -226 86370 152 54 0.00 13 38 0.34
07/14/2014 720.79 42538 -226 86370 156 59 0.00 15 44 0.38
07/15/2014 720.64 42326 -212 86370 -- -- -- -- -- --
07/16/2014 720.47 42087 -239 86370 158 45 0.00 17 28 0.17
07/17/2014 720.30 41849 -238 86370 153 46 0.00 16 32 0.29
07/18/2014 720.15 41639 -210 86370 150 57 0.00 14 33 0.29
07/19/2014 720.01 41444 -195 86370 152 67 0.00 14 35 0.31
07/20/2014 719.85 41221 -223 86370 149 50 0.00 15 34 0.30
07/21/2014 719.72 41041 -180 86370 148 66 0.00 16 29 0.20
07/22/2014 -- -- -- -- -- -- -- -- -- --

Later | Latest

Warning! This data is preliminary and subject to revision.

Download Data Now Download Data Now | Show COY Map | Plot COY Data | 1 Month COY Data | Real-Time COY Data | COY Info